Flag Weather past 2 weeks in Rostov, Russia

Now
32 °F

Partly sunny.


Feels Like: 22 °F
Forecast: 20 / 33 °F
Wind: 15 mph from Northeast

Location: Rostov-Na-Donu

Current Time: Nov 22, 2014 at 5:52:12 PM

Latest Report: Nov 22, 2014 at 5:00 PM


Visibility: N/A

Pressure: 30.24 "Hg

Humidity: 40%

Dew point: 10 °F

Location of RostovLocation

Historic Weather in Rostov — Graph

°F

Rostov temperature yesterday

Maximum temperature yesterday: 37 °F (at 2:00 PM)
Minimum temperature yesterday: 21 °F (at 6:00 AM)
Average temperature yesterday: 27 °F

Past Weeks' High & Low Weather Summary

 TemperatureHumidityPressure
High54 °F (Nov 7, 4:00 PM)100% (Nov 7, 8:00 PM)30.39 "Hg (Nov 7, 8:00 PM)
Low19 °F (Nov 22, 6:30 AM)28% (Nov 21, 2:30 PM)30.12 "Hg (Nov 14, 2:00 PM)
Average38 °F86%30.27 "Hg
* Reported Nov 7 4:00 PM — Nov 22 4:30 PM, Rostov, Weather by CustomWeather, © 2014

Note: Actual official high and low records may vary slightly from our data, if they occured in-between our weather recording intervals... More about our weather records

Advertising

Rostov weather history for previous 24 hours

 ConditionsComfort  
Time TempWeatherWind HumidityBarometerVisibility
4:30 PM
Nov 22
32 °FPartly sunny.10 mph40%30.24 "HgN/A
4:00 PM32 °FSunny.13 mph37%30.24 "Hg10 mi
3:30 PM34 °FSunny.15 mph35%30.24 "Hg10 mi
3:00 PM34 °FSunny.15 mph35%30.24 "Hg10 mi
2:30 PM34 °FSunny.17 mph32%30.24 "Hg10 mi
2:00 PM34 °FSunny.17 mph32%30.24 "Hg10 mi
1:30 PM34 °FSunny.20 mph35%30.24 "Hg10 mi
1:00 PM34 °FSunny.17 mph38%30.24 "Hg10 mi
12:30 PM32 °FSunny.17 mph40%30.24 "Hg10 mi
12:00 PM30 °FSunny.15 mph47%30.24 "Hg10 mi
11:30 AM28 °FSunny.17 mph51%30.27 "Hg10 mi
11:00 AM27 °FSunny.17 mph59%30.27 "Hg10 mi
10:30 AM27 °FSunny.15 mph64%30.27 "Hg10 mi
10:00 AM25 °FSunny.15 mph69%30.27 "Hg10 mi
9:30 AM23 °FSunny.15 mph74%30.27 "Hg10 mi
9:00 AM21 °FSunny.15 mph80%30.27 "Hg10 mi
8:30 AM21 °FClear.15 mph80%30.27 "Hg10 mi
8:00 AM19 °FClear.15 mph86%30.27 "Hg10 mi
7:30 AM19 °FClear.15 mph86%30.27 "HgN/A
7:00 AM19 °FClear.15 mph86%30.27 "HgN/A
6:30 AM19 °FClear.15 mph86%30.27 "HgN/A
5:30 AM21 °FClear.15 mph80%30.27 "HgN/A
5:00 AM21 °FClear.20 mph86%30.27 "HgN/A
4:30 AM21 °FClear.20 mph86%30.27 "HgN/A
4:00 AM21 °FClear.15 mph86%30.27 "HgN/A
3:30 AM21 °FClear.15 mph86%30.27 "HgN/A
3:00 AM21 °FClear.15 mph86%30.27 "HgN/A
2:30 AM21 °FClear.17 mph86%30.30 "HgN/A
2:00 AM21 °FClear.20 mph86%30.30 "HgN/A
1:30 AM23 °FClear.22 mph86%30.30 "HgN/A
1:00 AM21 °FClear.22 mph93%30.30 "HgN/A
12:30 AM23 °FClear.24 mph86%30.30 "HgN/A
12:00 AM21 °FClear.22 mph93%30.30 "HgN/A
11:30 PM
Nov 21
21 °FClear.20 mph93%30.30 "HgN/A
11:00 PM23 °FClear.24 mph86%30.30 "HgN/A
10:30 PM23 °FClear.24 mph86%30.30 "HgN/A
10:00 PM23 °FClear.24 mph86%30.30 "HgN/A
9:30 PM25 °FClear.24 mph80%30.27 "HgN/A
9:00 PM25 °FClear.24 mph80%30.27 "HgN/A
8:30 PM27 °FClear.24 mph69%30.27 "HgN/A
8:00 PM27 °FClear.24 mph69%30.27 "HgN/A
7:30 PM28 °FClear.22 mph59%30.27 "HgN/A
7:00 PM28 °FClear.22 mph55%30.27 "HgN/A
6:00 PM30 °FClear.22 mph51%30.27 "HgN/A
5:30 PM30 °FClear.22 mph51%30.27 "HgN/A
5:00 PM32 °FClear.24 mph40%30.27 "HgN/A
Weather by CustomWeather, © 2014

See weather overviewHow to use our weather pages